IK5WWP Weather Reports


Display with metric or nautical units.
time (UTC)temp
F
wind
direction
speed
MPH
gust
MPH
rain 1hr
in
rain 24hr
in
rain mn
in
humidity
%
barometer
mb
20260504004501 51 0 0.0 0.0 0.00 0.00 0.00 72 1017.5
20260504003602 52 0 0.0 0.0 0.00 0.00 0.00 72 1017.2
20260504002701 52 0 0.0 0.0 0.00 0.00 0.00 71 1017.4
20260504001801 53 0 0.0 0.0 0.00 0.00 0.00 70 1017.5
20260504000901 53 0 0.0 0.0 0.00 0.00 0.00 70 1017.6
20260504000002 53 0 0.0 0.0 0.00 0.00 0.00 70 1017.7
20260503234202 53 0 0.0 0.0 0.00 0.00 0.00 68 1017.8
20260503233302 53 0 0.0 0.0 0.00 0.00 0.00 68 1018.0
20260503231504 54 23 0.0 2.0 0.00 0.00 0.00 64 1017.8
20260503230601 53 22 0.0 2.0 0.00 0.00 0.00 66 1017.7
20260503225702 53 0 0.0 0.0 0.00 0.00 0.00 69 1018.0
20260503224801 53 0 0.0 0.0 0.00 0.00 0.00 69 1017.9
20260503223901 53 22 0.0 2.0 0.00 0.00 0.00 69 1018.0
20260503222102 53 23 0.0 2.0 0.00 0.00 0.00 69 1018.0
20260503221202 54 23 0.0 2.0 0.00 0.00 0.00 67 1018.1
20260503214456 56 0 0.0 0.0 0.00 0.00 0.00 64 1017.7
20260503213556 56 0 0.0 0.0 0.00 0.00 0.00 63 1017.8
20260503212656 56 0 0.0 0.0 0.00 0.00 0.00 64 1017.9
20260503211756 57 17 0.0 2.0 0.00 0.00 0.00 61 1017.7
20260503210856 58 1 0.0 2.0 0.00 0.00 0.00 59 1017.5
20260503205957 59 1 0.0 2.0 0.00 0.00 0.00 57 1017.5
20260503205056 60 1 0.0 2.0 0.00 0.00 0.00 53 1017.6
20260503204156 60 356 0.0 2.0 0.00 0.00 0.00 54 1017.5
20260503203257 60 1 0.0 2.0 0.00 0.00 0.00 53 1017.4
20260503202356 60 1 0.0 2.0 0.00 0.00 0.00 53 1017.5
20260503201456 61 9 0.0 2.0 0.00 0.00 0.00 51 1017.3
20260503200556 61 10 1.0 2.0 0.00 0.00 0.00 51 1017.3
20260503194756 62 10 2.0 2.0 0.00 0.00 0.00 51 1017.2
20260503193856 62 12 2.0 2.0 0.00 0.00 0.00 52 1017.2
20260503192957 62 1 1.0 2.0 0.00 0.00 0.00 52 1017.2
20260503192056 62 4 1.0 2.0 0.00 0.00 0.00 52 1017.2
20260503190257 63 1 0.0 2.0 0.00 0.00 0.00 49 1016.9
20260503183557 64 8 1.0 2.0 0.00 0.00 0.00 50 1016.8
20260503182657 64 1 0.0 2.0 0.00 0.00 0.00 52 1016.7
20260503181757 65 1 0.0 2.0 0.00 0.00 0.00 53 1017.0
20260503175957 67 29 0.0 2.0 0.00 0.00 0.00 47 1016.7
20260503175057 68 27 0.0 2.0 0.00 0.00 0.00 46 1016.8
20260503174157 68 33 1.0 2.0 0.00 0.00 0.00 45 1016.5
20260503173257 69 22 0.0 2.0 0.00 0.00 0.00 45 1016.4
20260503172357 69 28 0.0 2.0 0.00 0.00 0.00 44 1016.3
20260503171457 69 28 1.0 2.0 0.00 0.00 0.00 44 1016.3
20260503150857 74 98 1.0 4.0 0.00 0.00 0.00 34 1016.7
20260503131157 76 92 2.0 4.0 0.00 0.00 0.00 35 1018.4
20260503130257 76 90 1.0 8.0 0.00 0.00 0.00 35 1018.6
20260503110557 74 77 2.0 4.0 0.00 0.00 0.00 38 1018.6
20260503100258 74 151 2.0 4.0 0.00 0.00 0.00 43 1019.0
20260503081458 66 111 1.0 2.0 0.00 0.00 0.00 56 1019.2
20260503080558 65 112 1.0 2.0 0.00 0.00 0.00 57 1019.4
20260503072058 59 46 1.0 4.0 0.00 0.00 0.00 67 1019.8
20260503071158 58 28 1.0 4.0 0.00 0.00 0.00 69 1019.8
20260503070258 58 22 0.0 2.0 0.00 0.00 0.00 70 1020.0
20260503055058 52 1 0.0 2.0 0.00 0.00 0.00 80 1019.8
20260503054158 51 1 1.0 2.0 0.00 0.00 0.00 81 1020.0
20260503052358 50 0 0.0 0.0 0.00 0.00 0.00 83 1019.8
20260503051458 49 1 0.0 2.0 0.00 0.00 0.00 83 1019.7
20260503050558 49 1 0.0 2.0 0.00 0.00 0.00 83 1019.7
20260503045658 49 1 0.0 2.0 0.00 0.00 0.00 82 1019.8
20260503044758 49 0 0.0 0.0 0.00 0.00 0.00 82 1019.4
20260503042958 49 0 0.0 0.0 0.00 0.00 0.00 82 1019.8
20260503042058 49 0 0.0 0.0 0.00 0.00 0.00 82 1019.6
20260503041158 49 0 0.0 0.0 0.00 0.00 0.00 82 1019.6
20260503040258 49 0 0.0 0.0 0.00 0.00 0.00 82 1019.6
20260503035358 49 0 0.0 0.0 0.00 0.00 0.00 81 1019.4
20260503034458 49 0 0.0 0.0 0.00 0.00 0.00 82 1019.4
20260503033559 49 0 0.0 0.0 0.00 0.00 0.00 82 1019.3
20260503032659 49 1 0.0 2.0 0.00 0.00 0.00 81 1019.4
20260503031758 49 1 0.0 2.0 0.00 0.00 0.00 81 1019.3
20260503030859 49 0 0.0 0.0 0.00 0.00 0.00 80 1019.4
20260503025059 49 0 0.0 0.0 0.00 0.00 0.00 81 1019.6
20260503024159 49 1 0.0 2.0 0.00 0.00 0.00 81 1019.5
20260503023259 50 1 0.0 2.0 0.00 0.00 0.00 79 1019.6
20260503022359 51 1 0.0 2.0 0.00 0.00 0.00 78 1019.7
20260503021458 51 0 0.0 0.0 0.00 0.00 0.00 78 1019.5
20260503020559 51 0 0.0 0.0 0.00 0.00 0.00 79 1019.5
20260503014759 51 0 0.0 0.0 0.00 0.00 0.00 77 1019.4
20260503013859 51 0 0.0 0.0 0.00 0.00 0.00 77 1019.4
20260503012959 52 0 0.0 0.0 0.00 0.00 0.00 76 1019.2
20260503012059 52 0 0.0 0.0 0.00 0.00 0.00 76 1019.2
20260503011159 52 0 0.0 0.0 0.00 0.00 0.00 75 1019.4
20260503010259 52 1 0.0 2.0 0.00 0.00 0.00 75 1019.3
20260503005400 52 1 0.0 2.0 0.00 0.00 0.00 74 1019.4